This demonstration page uses our WeatherBlox Daily Observations layout. Learn more.

Left ArrowRight Arrow

Hourly Observations for April 6, 2019

Temp ( °F °C ) Dew Point ( °F °C ) Humidity (%) Winds ( mph kmh ) Pressure ( in mb ) Visibility ( mi km ) Precip ( " mm )
12:53 am 00:53 Mostly Cloudy 57 13.9 57 13.9 100 100 Calm 30.09 1019 10 16 0.00 0.00
1:53 am 01:53 Mostly Cloudy 57 13.9 56 13.3 96 96 Calm 30.11 1020 10 16 0.00 0.00
2:53 am 02:53 Mostly Clear 57 13.9 57 13.9 100 100 Calm 30.10 1019 10 16 0.00 0.00
3:53 am 03:53 Partly Cloudy 58 14.4 58 14.4 100 100 Calm 30.10 1019 10 16 0.00 0.00
4:00 am 04:00 Mostly Cloudy 56 13.3 56 13.3 100 100 Calm 30.11 1020 10 16 0.00 0.00
4:30 am 04:30 Cloudy 59 15 58 14.4 96 96 Calm 30.10 1019 10 16 0.00 0.00
5:53 am 05:53 Cloudy 60 15.6 59 15 96 96 ENE 7 11 30.09 1019 10 16 0.00 0.00
6:06 am 06:06 Cloudy 60 15.6 58 14.4 93 93 ENE 9 15 30.11 1020 10 16 0.00 0.00
6:53 am 06:53 Cloudy 59 15 58 14.4 96 96 NE 3 6 30.10 1019 10 16 0.00 0.00
7:53 am 07:53 Cloudy 59 15 57 13.9 93 93 ENE 7 11 30.12 1020 10 16 0.00 0.00
8:53 am 08:53 Cloudy 60 15.6 57 13.9 90 90 ENE 6 9 30.15 1021 10 16 0.00 0.00
9:53 am 09:53 Cloudy 62 16.7 57 13.9 84 84 ENE 9 15 30.15 1021 10 16 0.00 0.00
10:53 am 10:53 Cloudy 63 17.2 57 13.9 81 81 VRB 3 6 30.17 1022 10 16 0.00 0.00
11:53 am 11:53 Cloudy 65 18.3 58 14.4 78 78 E 6 9 30.18 1022 10 16 0.00 0.00
12:53 pm 12:53 Cloudy 67 19.4 59 15 76 76 ENE 6 9 30.18 1022 10 16 0.00 0.00
1:53 pm 13:53 Cloudy 69 20.6 60 15.6 73 73 VRB 5 7 30.15 1021 10 16 0.00 0.00
2:32 pm 14:32 Cloudy 71 21.7 61 16.1 71 71 S 6 9 30.12 1020 10 16 0.00 0.00
2:53 pm 14:53 Cloudy 73 22.8 61 16.1 66 66 SSE 8 13 30.13 1020 10 16 0.00 0.00
3:53 pm 15:53 Mostly Cloudy 74 23.3 62 16.7 67 67 VRB 5 7 30.11 1020 10 16 0.00 0.00
4:53 pm 16:53 Cloudy 73 22.8 62 16.7 69 69 SSE 7 11 30.08 1019 10 16 0.00 0.00
5:00 pm 17:00 Mostly Cloudy 73 22.8 62 16.7 69 69 SSE 7 11 30.06 1018 10 16 0.00 0.00
6:53 pm 18:53 Mostly Cloudy 73 22.8 62 16.7 69 69 SSE 8 13 30.10 1019 10 16 0.00 0.00
7:53 pm 19:53 Cloudy 71 21.7 63 17.2 76 76 SSE 9 15 30.11 1020 10 16 0.00 0.00
8:53 pm 20:53 Clear 69 20.6 63 17.2 81 81 SSE 5 7 30.12 1020 10 16 0.00 0.00
9:53 pm 21:53 Clear 68 20 63 17.2 84 84 Calm 30.14 1021 10 16 0.00 0.00
10:53 pm 22:53 Clear 67 19.4 63 17.2 87 87 ESE 5 7 30.13 1020 10 16 0.00 0.00
11:53 pm 23:53 Clear 66 18.9 63 17.2 90 90 SSW 3 6 30.16 1021 10 16 0.00 0.00

Powered by AerisWeather